Terminal Aerodrome Forecast
Issued by NWS Buffalo, NY

Home | Current Version | Previous Version | Text Only | Print | Product List | Glossary On
Versions: 1 2 3 4 5 6 7 8 9 10 11 12 13 14 15 16 17 18 19 20 21 22 23 24 25
000
FTUS41 KBUF 301120
TAFBUF
TAF
KBUF 301120Z 3012/3112 23014G22KT P6SM SCT100
     FM301600 23018G26KT P6SM SCT100
     FM302000 24016KT P6SM VCSH BKN060
     FM302300 24014KT 6SM -SHRA VCTS OVC040CB
     FM310300 35008KT 5SM SHRA BR OVC015
     FM310600 02012KT 3SM -SHRA BR OVC007=

USA.gov is the U.S. government's official web portal to all federal, state and local government web resources and services.